Wind_Speed
8 9 12 5 6 19 19 20 11 3 14 19 8 4 1 15 20 23 22 13 15 20 19 24 18 13 13 9 6 4 2 6 10 8 7 8 9 8 7 8 6 5 5 7
10 17 5 10 17 21 15 14 21 7 14 17 9 6 1 10 12 15 19 21 13 19 23 26 23 17 6 4 1 3 2 5 10 11 10 10 10 8 5 5 3 5 5 5
11 8 4 10 18 23 12 10 2 4 11 11 8 8 5 10 12 22 24 19 17 16 23 27 28 20 10 6 4 1 4 4 10 12 12 11 7 6 6 6 9 7 6 5
11 6 11 17 21 11 11 13 13 10 5 4 8 5 15 13 14 20 25 27 22 22 21 26 27 23 14 7 7 3 2 2 8 12 12 10 6 4 9 4 6 4 3 3
11 10 14 19 10 10 14 11 13 12 14 9 1 5 7 15 24 25 24 21 20 26 21 28 26 19 8 6 11 7 4 5 7 10 13 12 9 5 2 7 5 3 1 3
20 15 19 13 11 14 12 14 10 12 12 2 4 0 10 13 21 25 25 20 15 15 20 22 20 20 13 6 11 14 8 5 5 11 14 13 12 4 4 5 3 3 6 5
14 18 16 15 17 12 15 7 3 4 3 6 3 9 12 18 21 23 24 24 21 15 15 16 23 18 20 11 6 12 12 6 7 9 13 14 12 6 4 3 1 7 5 5
13 10 5 4 17 20 10 6 3 5 3 12 15 5 9 6 13 19 20 17 21 25 14 7 7 6 7 11 4 3 5 9 6 6 10 12 13 11 5 4 3 4 5 5
6 13 13 13 13 13 12 14 6 10 5 4 0 6 10 7 5 16 18 22 22 24 19 11 8 5 2 6 4 3 3 5 6 5 10 11 12 12 7 6 4 1 2 2
16 21 10 14 12 9 13 7 5 7 1 3 1 4 6 14 12 14 16 16 19 22 21 11 12 8 2 2 2 4 3 4 3 7 9 9 9 9 9 10 7 4 4 4
27 22 22 12 7 12 10 14 10 12 4 7 2 4 12 11 4 17 21 11 12 23 21 13 13 10 4 2 1 1 3 4 6 8 10 10 10 10 11 10 9 7 7 6
5 1 11 13 11 9 11 18 21 13 8 5 5 5 22 16 8 23 22 13 8 20 18 13 12 10 8 9 5 1 2 3 5 6 8 7 8 10 10 10 9 10 10 11
9 5 4 11 9 7 19 25 20 18 19 15 4 3 17 13 9 20 24 14 10 14 16 14 16 14 8 5 10 6 6 9 7 6 7 6 5 5 8 10 11 14 14 17
4 8 9 4 9 15 18 19 20 12 6 7 7 10 21 19 29 29 25 18 12 15 14 12 16 15 10 5 6 7 8 10 10 9 9 8 6 4 5 7 13 18 17 22
4 4 10 5 4 5 11 20 19 19 17 3 5 21 30 29 25 22 20 19 18 18 19 16 16 16 16 14 11 10 7 8 11 10 10 8 7 8 9 10 14 19 18 21
7 6 11 10 11 8 10 17 20 21 20 9 4 27 28 27 21 17 19 20 21 22 23 23 20 16 18 19 17 14 14 11 10 11 11 12 12 11 12 15 19 18 19 23
9 9 13 11 15 12 3 13 17 18 14 5 16 22 24 20 18 17 15 18 19 20 23 26 28 27 23 12 11 16 17 18 16 14 13 13 14 15 17 19 20 19 20 21
15 14 9 7 15 1 4 4 11 7 11 10 3 19 22 21 22 21 18 18 18 20 21 21 20 20 25 26 23 18 14 14 17 19 19 18 18 19 21 23 23 23 23 20
14 15 6 2 3 5 2 5 8 8 3 1 6 13 21 26 21 21 18 13 10 7 8 9 13 24 24 23 24 24 25 23 21 19 20 20 20 22 24 23 24 24 23 21
1 4 4 1 1 2 5 4 5 6 9 11 11 6 16 19 21 20 20 16 12 6 5 3 4 9 17 27 31 31 29 25 26 27 27 27 25 26 25 23 24 23 21 22
4 3 1 4 5 6 14 14 11 6 8 13 21 18 12 25 24 27 24 16 9 4 3 8 7 8 11 12 15 21 33 33 29 30 31 29 28 27 28 26 18 16 19 23
6 5 5 3 5 8 15 13 15 8 11 13 9 11 5 12 17 19 20 12 9 6 1 5 14 12 12 14 12 12 18 26 31 29 30 32 29 23 15 17 18 19 21 21
2 3 6 5 9 12 6 3 8 12 8 1 10 5 4 8 11 28 33 17 25 20 7 16 16 18 15 15 15 18 14 14 18 21 20 19 21 20 18 18 18 19 18 18
7 9 11 12 12 18 18 19 16 14 11 5 4 9 16 3 2 2 4 11 9 25 17 14 21 23 19 16 15 16 16 17 14 12 13 14 13 16 18 18 17 19 15 18
9 14 12 16 10 4 7 6 6 6 11 11 12 10 4 3 4 6 7 10 8 12 17 20 19 22 19 16 16 14 13 13 14 14 10 8 9 9 12 13 15 17 17 17
7 7 9 8 2 5 8 5 7 6 6 8 5 2 6 8 7 7 13 13 10 14 21 16 17 18 18 17 15 15 14 13 12 11 10 9 9 10 12 14 15 17 17 17
Wind_Direction
197 243 191 162 303 318 301 287 303 284 220 205 196 42 104 211 213 214 213 201 180 195 192 206 217 228 242 235 235 25 228 219 224 220 178 144 158 154 131 112 117 75 38 27
200 211 208 299 302 308 284 292 344 297 223 192 198 102 49 216 227 226 212 206 200 188 201 209 216 229 281 168 154 266 292 189 206 207 179 162 177 175 123 40 21 102 70 28
216 149 302 313 322 321 282 359 346 97 196 252 197 210 214 226 211 219 220 213 213 213 202 209 219 231 253 215 176 139 14 206 202 197 185 181 181 193 123 121 126 95 62 29
254 182 284 308 307 325 308 322 340 0 333 325 233 261 218 221 233 230 224 213 216 212 217 215 223 233 247 232 221 229 36 307 207 203 187 183 198 142 63 107 106 67 40 35
238 266 286 297 327 317 305 314 330 331 317 313 245 282 264 230 229 226 232 230 218 212 214 216 222 230 240 241 225 242 274 331 210 204 204 195 208 188 134 129 137 92 81 53
257 240 274 276 274 302 288 292 328 305 300 268 205 219 302 239 239 236 227 227 215 196 212 207 224 229 237 242 225 238 254 304 238 198 206 206 217 212 122 118 135 91 43 37
267 263 253 262 272 270 283 254 336 319 350 221 284 288 248 232 241 228 221 219 223 211 208 204 213 225 232 238 224 230 242 260 310 214 204 208 221 219 144 138 93 60 68 38
279 299 238 270 295 263 272 273 234 230 229 276 292 257 352 207 234 227 225 216 220 219 216 214 210 221 209 237 240 196 203 240 261 252 202 199 207 229 216 185 231 108 95 59
237 269 294 329 332 217 233 253 264 283 318 242 358 59 139 154 155 173 195 211 216 215 219 226 226 232 165 217 178 132 168 190 232 252 217 207 207 217 235 254 252 299 288 9
260 274 298 339 345 207 228 266 281 294 43 5 359 254 162 161 135 166 189 201 217 214 209 210 215 226 249 110 175 236 244 231 240 260 232 217 223 222 225 245 267 280 304 309
245 259 286 307 341 349 307 259 268 270 230 163 213 220 162 175 114 188 192 207 201 203 208 209 206 215 245 262 159 157 204 196 219 219 216 217 220 231 232 233 251 254 263 282
100 122 285 301 292 9 12 1 293 251 235 234 274 238 207 246 168 194 192 201 180 195 205 212 211 219 259 243 239 135 229 157 145 175 202 207 222 229 239 239 238 257 265 263
341 360 353 297 297 286 357 343 348 272 254 261 174 254 191 158 138 162 184 177 175 187 203 215 213 220 239 273 246 209 183 162 171 186 194 196 204 224 239 241 245 250 251 257
336 333 333 291 325 334 355 342 347 344 268 298 266 174 166 178 157 164 165 165 173 181 200 209 211 220 230 258 294 257 238 195 191 198 194 201 205 220 238 240 241 251 253 260
24 346 358 319 319 338 4 17 24 28 29 9 357 182 171 172 167 168 171 175 176 176 193 214 221 230 232 244 266 260 263 226 209 214 220 200 218 233 246 253 252 255 266 276
42 350 352 345 338 324 351 10 18 16 34 31 182 190 187 198 188 200 213 199 194 190 197 206 216 212 236 243 249 267 273 265 247 234 223 217 222 242 256 262 263 270 275 279
315 336 338 325 325 331 325 17 26 33 40 88 142 147 163 186 207 198 204 211 209 206 208 215 218 222 228 217 245 259 266 267 258 250 240 236 236 243 252 265 271 276 280 285
279 289 309 293 305 6 126 318 348 356 38 75 199 190 193 180 181 187 197 197 209 214 218 225 234 235 229 230 226 225 230 242 250 257 259 258 257 259 263 266 269 275 279 279
253 251 234 229 220 258 208 282 319 342 323 229 85 161 180 180 183 185 195 184 157 175 179 213 229 237 250 252 248 243 236 234 237 242 248 256 261 263 264 267 272 273 277 281
157 170 205 175 211 197 225 313 304 258 262 282 256 175 183 192 188 170 163 166 159 156 359 343 254 237 240 244 249 257 258 244 240 244 252 256 262 268 272 268 263 270 275 281
342 347 280 253 250 249 268 265 268 241 280 265 252 260 228 206 204 193 185 171 159 177 94 329 330 309 293 275 255 251 251 252 254 251 252 259 266 271 273 270 261 272 273 266
343 337 330 314 242 249 262 254 239 192 259 271 289 254 222 246 282 232 209 191 184 202 234 320 298 296 290 286 280 257 251 253 257 258 260 264 271 272 261 256 254 259 265 270
300 339 289 277 275 261 227 238 232 227 206 304 246 241 258 256 240 246 250 253 253 238 226 264 282 291 289 285 275 268 263 259 255 262 264 255 254 257 259 260 261 255 261 264
304 313 312 311 309 252 268 265 271 288 269 244 129 90 54 96 30 314 229 236 253 260 266 207 257 277 280 272 272 262 259 262 264 266 268 267 251 247 251 253 263 268 273 267
279 292 303 306 258 272 314 299 253 272 226 214 224 228 328 36 118 349 313 287 278 269 256 257 273 276 280 264 264 262 266 265 263 264 266 269 269 258 258 258 259 260 261 268
266 272 289 310 110 202 251 162 142 103 125 156 179 169 267 271 269 250 233 239 260 277 249 246 255 268 281 282 267 258 258 263 269 277 281 285 281 274 271 266 265 269 272 273
Height
3178 3178 3175 3175 3176 3176 3175 3176 3176 3174 3171 3172 3172 3171 3171 3172 3173 3174 3176 3178 3180 3183 3186 3190 3192 3194 3197 3199 3199 3201 3203 3204 3205 3206 3206 3207 3208 3208 3208 3209 3209 3209 3210 3210
3176 3172 3174 3175 3174 3174 3174 3175 3172 3171 3170 3171 3173 3171 3170 3170 3170 3170 3172 3174 3178 3182 3185 3189 3191 3193 3196 3198 3199 3202 3203 3204 3205 3206 3207 3208 3207 3208 3208 3209 3207 3209 3209 3208
3172 3172 3173 3173 3170 3170 3171 3173 3174 3170 3169 3172 3172 3170 3169 3169 3168 3169 3170 3173 3178 3180 3182 3186 3189 3192 3195 3197 3198 3201 3203 3203 3205 3206 3207 3207 3207 3208 3208 3208 3207 3208 3208 3208
3169 3168 3169 3170 3170 3170 3169 3171 3172 3171 3172 3169 3169 3168 3167 3165 3165 3164 3168 3170 3175 3178 3181 3184 3187 3190 3193 3195 3198 3201 3202 3203 3204 3205 3206 3207 3207 3208 3208 3207 3208 3208 3207 3208
3166 3165 3167 3167 3168 3168 3168 3168 3169 3168 3167 3166 3166 3167 3164 3164 3161 3163 3166 3169 3173 3176 3179 3181 3183 3187 3191 3193 3196 3200 3202 3202 3203 3204 3206 3206 3206 3209 3209 3208 3209 3210 3207 3208
3164 3164 3165 3165 3166 3167 3168 3167 3168 3165 3164 3164 3163 3163 3159 3159 3157 3162 3166 3167 3170 3171 3173 3178 3182 3186 3189 3191 3194 3197 3200 3201 3202 3203 3204 3206 3206 3207 3209 3209 3210 3209 3208 3209
3163 3161 3161 3164 3164 3164 3165 3166 3168 3167 3166 3163 3160 3160 3155 3156 3156 3159 3160 3162 3165 3170 3171 3175 3180 3183 3186 3189 3191 3194 3197 3199 3200 3202 3203 3205 3205 3206 3208 3208 3208 3209 3209 3210
3162 3158 3159 3161 3162 3162 3164 3166 3168 3170 3169 3159 3158 3156 3154 3154 3155 3156 3159 3161 3164 3167 3171 3175 3178 3181 3184 3187 3189 3192 3194 3197 3199 3200 3202 3204 3204 3204 3206 3208 3209 3211 3212 3212
3158 3156 3157 3159 3154 3158 3162 3163 3164 3162 3160 3158 3158 3155 3156 3156 3156 3156 3160 3162 3164 3167 3170 3173 3177 3181 3183 3185 3187 3190 3192 3195 3197 3200 3200 3202 3203 3204 3204 3206 3208 3209 3209 3210
3157 3155 3155 3156 3156 3157 3158 3160 3161 3159 3162 3162 3157 3158 3157 3157 3158 3160 3163 3163 3164 3167 3170 3173 3176 3179 3181 3184 3186 3188 3191 3193 3195 3198 3199 3200 3201 3203 3204 3205 3207 3209 3210 3210
3155 3158 3154 3156 3157 3158 3159 3157 3158 3158 3158 3160 3162 3157 3155 3155 3160 3160 3161 3162 3163 3166 3169 3171 3173 3177 3180 3182 3184 3186 3189 3191 3192 3195 3196 3197 3199 3201 3202 3204 3205 3207 3208 3208
3153 3152 3151 3153 3155 3157 3156 3155 3154 3154 3155 3154 3153 3153 3152 3153 3156 3160 3161 3163 3162 3164 3168 3170 3173 3176 3178 3181 3183 3185 3187 3188 3190 3192 3193 3195 3196 3198 3200 3202 3204 3204 3204 3206
3151 3152 3152 3151 3153 3153 3152 3152 3150 3146 3148 3149 3151 3151 3151 3153 3154 3153 3162 3164 3163 3164 3168 3170 3173 3175 3178 3178 3180 3183 3185 3187 3188 3190 3192 3193 3194 3196 3197 3199 3200 3200 3202 3200
3151 3152 3154 3157 3157 3155 3152 3150 3148 3143 3145 3145 3146 3146 3149 3152 3156 3157 3161 3162 3164 3165 3167 3169 3172 3174 3176 3178 3179 3180 3182 3184 3186 3187 3189 3190 3192 3193 3195 3196 3196 3195 3196 3193
3150 3153 3153 3154 3153 3153 3153 3151 3148 3144 3144 3141 3143 3143 3147 3149 3151 3154 3157 3160 3162 3164 3166 3167 3169 3172 3174 3176 3178 3179 3180 3181 3183 3184 3185 3187 3189 3190 3191 3192 3192 3191 3192 3191
3150 3151 3150 3151 3150 3150 3151 3150 3150 3146 3143 3138 3139 3143 3145 3149 3150 3153 3156 3158 3160 3162 3163 3165 3166 3169 3170 3173 3174 3175 3176 3178 3179 3179 3181 3183 3184 3186 3187 3187 3187 3188 3188 3185
3147 3148 3147 3147 3146 3147 3150 3150 3150 3148 3145 3140 3143 3144 3146 3148 3149 3151 3153 3156 3158 3160 3161 3163 3164 3166 3167 3169 3171 3171 3172 3174 3174 3175 3177 3179 3180 3181 3182 3182 3182 3182 3183 3183
3144 3145 3146 3146 3145 3147 3149 3149 3148 3149 3148 3144 3145 3144 3143 3146 3145 3147 3151 3154 3157 3159 3160 3161 3162 3163 3164 3165 3166 3167 3168 3169 3170 3171 3172 3173 3174 3175 3177 3176 3176 3175 3176 3177
3140 3142 3143 3143 3143 3146 3145 3147 3146 3146 3147 3145 3142 3144 3141 3142 3145 3145 3147 3151 3153 3159 3159 3159 3159 3159 3160 3161 3162 3163 3163 3164 3164 3165 3166 3167 3168 3169 3169 3170 3169 3168 3169 3169
3139 3140 3141 3141 3141 3142 3143 3144 3143 3142 3144 3143 3139 3138 3144 3143 3142 3145 3145 3150 3149 3150 3158 3159 3158 3157 3156 3156 3157 3156 3157 3159 3160 3160 3161 3161 3162 3162 3162 3162 3163 3162 3162 3162
3137 3137 3139 3138 3139 3139 3139 3141 3140 3141 3144 3138 3140 3138 3140 3142 3141 3142 3145 3148 3149 3151 3149 3156 3158 3158 3157 3155 3154 3151 3151 3152 3154 3154 3154 3155 3156 3156 3155 3155 3157 3157 3156 3156
3136 3137 3137 3137 3136 3135 3134 3136 3138 3137 3134 3134 3135 3136 3137 3140 3138 3140 3141 3147 3147 3148 3148 3149 3156 3156 3155 3153 3151 3148 3147 3146 3146 3147 3147 3148 3149 3151 3150 3150 3152 3153 3153 3152
3136 3137 3138 3138 3136 3131 3131 3132 3133 3133 3134 3134 3135 3134 3133 3134 3136 3137 3142 3148 3150 3149 3148 3151 3154 3157 3154 3152 3148 3145 3143 3142 3141 3140 3139 3140 3142 3143 3145 3145 3147 3146 3148 3148
3133 3134 3133 3133 3128 3127 3127 3129 3129 3130 3131 3133 3134 3134 3132 3134 3136 3136 3135 3143 3141 3136 3146 3129 3152 3150 3149 3146 3143 3141 3141 3140 3139 3136 3136 3136 3137 3137 3138 3138 3140 3141 3141 3142
3131 3130 3129 3127 3125 3124 3124 3124 3124 3127 3126 3129 3131 3131 3132 3136 3137 3139 3141 3141 3139 3137 3139 3143 3145 3145 3144 3143 3140 3137 3137 3136 3136 3135 3134 3134 3134 3134 3134 3134 3134 3135 3135 3137
3126 3126 3126 3123 3122 3122 3122 3121 3124 3127 3129 3131 3130 3128 3130 3131 3133 3135 3138 3137 3136 3137 3137 3139 3141 3142 3140 3140 3138 3136 3134 3132 3131 3132 3131 3132 3133 3132 3130 3129 3129 3130 3131 3132